Weather in Cesis

Latvia     57°18′46″N   25°16′20″E
temp.,
°C
wind,
m/s
gust,
m/s
humid.,
%
clouds,
%
prec.,
mm/h
press.,
hPa
HPBL,
m
19 september, sun
sun1900:00+5ene513770 0.0 1020582
03:00+3ene413820 0.0 1020517
06:00+3ene514894 0.0 1019571
09:00+5ne5148023 0.0 1019661
12:00+10ene610545 0.0 10191011
15:00+12ene69465 0.0 10191330
18:00+10ene510575 0.0 10191173
21:00+6ene512705 0.0 1020803
20 september, mon
mon2000:00+4ne512775 0.0 1020758
03:00+5ne41179100 0.0 1020714
06:00+5ne51276100 0.0 1020737
09:00+6ne51274100 0.0 1020748
12:00+8ne51067100 0.0 10201093
15:00+7ene51077100 0.1 10201167
18:00+6ne51083100 0.1 10201117
21:00+6ne497891 0.2 1021972
21 september, tue
tue2100:00+5ne4781100 0.1 1021933
03:00+5ne3685100 0.1 1021809
06:00+4nne378491 0.0 1021597
09:00+4nne377791 0.0 1021530
12:00+8nne356493 0.0 1021950
15:00+10n355387 0.0 10201394
18:00+10n365167 0.0 1020912
21:00+4n116937 0.0 102113
22 september, wed
wed2200:00+3n228268 0.0 102145
03:00+1n27975 0.0 1022165
06:000n239822 0.0 102254
09:00+4n288588 0.0 1022293
12:00+8n4566100 0.0 10221113
15:00+9n356498 0.0 1021931
18:00+9n2464100 0.0 1020697
21:00+7nne117395 0.0 101919
23 september, thu
thu2300:00+4ne009199 0.0 101810
03:00+3s009311 0.0 101610
06:00+3ssw119469 0.0 101411
09:00+6s2380100 0.0 1012150
12:00+10s3458100 0.0 1009703
15:00+11s4656100 0.0 1006793
18:00+7sse51192100 1.0 1004540
21:00+8sse61394100 1.3 1000552